CW8593 Weather Reports


Display with metric or nautical units.
time (UTC)temp
F
wind
direction
speed
MPH
gust
MPH
rain 1hr
in
rain 24hr
in
rain mn
in
humidity
%
barometer
mb
20140822193317 66 55 7.0 20.0 0.92 1.43 1.43 88 1014.5
20140822184318 70 76 3.0 10.0 0.01 0.50 0.50 87 1013.8
20140822181317 70 42 5.0 10.0 0.01 0.50 0.50 86 1013.7
20140822180315 71 58 2.0 12.0 0.01 0.50 0.50 86 1013.1
20140822174316 70 43 5.0 12.0 0.00 0.50 0.50 85 1013.6
20140822173317 70 87 2.0 13.0 0.00 0.50 0.50 86 1013.6
20140822171322 70 19 7.0 12.0 0.00 0.50 0.50 87 1013.7
20140822164319 71 38 7.0 15.0 0.00 0.50 0.50 85 1013.6
20140822161318 71 42 5.0 8.0 0.00 0.50 0.50 84 1013.6
20140822160316 71 46 1.0 12.0 0.00 0.50 0.50 84 1013.6
20140822154317 71 61 5.0 10.0 0.00 0.50 0.50 83 1013.5
20140822153316 71 71 5.0 12.0 0.00 0.50 0.50 82 1013.3
20140822151316 72 88 2.0 10.0 0.00 0.50 0.50 81 1013.6
20140822144316 71 355 5.0 10.0 0.00 0.50 0.50 81 1014.4
20140822143317 71 52 3.0 7.0 0.00 0.50 0.50 82 1014.4
20140822141316 71 60 2.0 7.0 0.00 0.50 0.50 82 1014.4
20140822134316 71 47 3.0 6.0 0.00 0.50 0.50 84 1014.6
20140822133316 70 45 1.0 6.0 0.00 0.50 0.50 85 1014.6
20140822131316 70 55 2.0 10.0 0.00 0.50 0.50 86 1014.9
20140822130318 69 50 5.0 14.0 0.00 0.50 0.50 86 1015.1
20140822123316 69 36 5.0 10.0 0.20 0.50 0.50 88 1015.2
20140822121316 69 5 3.0 8.0 0.44 0.50 0.50 88 1015.2
20140822120315 69 26 2.0 8.0 0.44 0.50 0.50 88 1015.4
20140822113316 70 26 3.0 10.0 0.24 0.30 0.30 83 1015.4
20140822110315 71 53 3.0 12.0 0.00 0.06 0.06 80 1015.4
20140822104315 71 85 2.0 10.0 0.00 0.06 0.06 81 1015.6
20140822100316 72 41 5.0 12.0 0.00 0.06 0.06 82 1015.6
20140822094315 73 88 5.0 12.0 0.00 0.06 0.06 82 1015.4
20140822093317 73 66 9.0 13.0 0.00 0.06 0.06 81 1015.4
20140822091317 73 67 0.0 1.0 0.00 0.06 0.06 80 1015.3
20140822090317 73 67 2.0 8.0 0.00 0.06 0.06 80 1015.3
20140822083316 72 22 2.0 3.0 0.00 0.06 0.06 80 1015.2
20140822081316 72 22 0.0 3.0 0.01 0.06 0.06 80 1015.0
20140822080316 72 22 1.0 5.0 0.01 0.06 0.06 80 1014.9
20140822074315 72 325 0.0 2.0 0.01 0.06 0.06 80 1014.8
20140822071316 71 325 1.0 3.0 0.00 0.05 0.05 81 1014.6
20140822070316 71 325 1.0 3.0 0.00 0.05 0.05 81 1014.6
20140822064316 71 325 0.0 3.0 0.00 0.05 0.05 81 1014.6
20140822061316 70 325 2.0 5.0 0.00 0.05 0.05 81 1014.6
20140822054315 70 321 2.0 6.0 0.00 0.05 0.05 83 1014.4
20140822050317 69 304 1.0 5.0 0.00 0.05 0.05 83 1014.3
20140822044315 69 303 2.0 5.0 0.00 0.05 0.05 84 1014.3
20140822041316 68 302 2.0 7.0 0.00 0.05 0.05 85 1014.3
20140822040315 68 292 0.0 7.0 0.00 0.05 0.05 85 1014.5
20140822034315 68 293 3.0 6.0 0.00 0.05 0.05 86 1014.3
20140822031316 68 292 2.0 7.0 0.02 0.05 0.05 86 1014.6
20140822030317 67 291 4.0 9.0 0.03 0.05 0.05 85 1014.5
20140822024318 68 281 6.0 8.0 0.05 0.05 0.05 85 1014.6
20140822023318 68 333 2.0 5.0 0.05 0.05 0.05 83 1014.7
20140822013315 72 0 2.0 5.0 0.00 0.09 0.00 72 1015.0
20140822010315 71 0 1.0 5.0 0.00 0.09 0.00 72 1015.1
20140822004315 71 339 3.0 5.0 0.00 0.09 0.00 71 1015.4
20140822003315 71 339 2.0 6.0 0.00 0.09 0.00 71 1015.3
20140822001315 71 344 2.0 5.0 0.00 0.09 0.00 71 1015.7
20140822000316 71 344 3.0 6.0 0.00 0.09 0.00 71 1015.7
20140821233315 71 324 3.0 6.0 0.00 0.09 0.09 71 1016.0
20140821231315 71 322 1.0 5.0 0.00 0.09 0.09 72 1016.0
20140821230315 71 321 0.0 5.0 0.00 0.09 0.09 72 1016.1
20140821224315 71 329 1.0 5.0 0.00 0.09 0.09 72 1016.1
20140821223315 71 329 1.0 5.0 0.00 0.09 0.09 72 1016.1
20140821220315 71 5 0.0 3.0 0.00 0.09 0.09 72 1016.1
20140821214316 70 15 2.0 3.0 0.00 0.09 0.09 72 1016.0
20140821213315 70 21 0.0 3.0 0.00 0.09 0.09 72 1015.8
20140821210315 70 121 1.0 3.0 0.00 0.09 0.09 72 1015.9
20140821203315 70 120 0.0 2.0 0.00 0.09 0.09 72 1015.8
20140821201314 71 119 0.0 2.0 0.00 0.09 0.09 71 1015.7
20140821200315 71 120 1.0 2.0 0.00 0.09 0.09 70 1015.7